| time (UTC) | temp C | wind direction | speed KPH | gust KPH | rain 1hr cm | rain 24hr cm | rain mn cm | humidity % | barometer mb |
| 20260507045034 | 16 | 261 | 1.6 | 6.4 | 0.00 | 0.00 | 0.00 | 87 | 1018.7 |
| 20260507044533 | 16 | 235 | 1.6 | 6.4 | 0.00 | 0.00 | 0.00 | 87 | 1018.7 |
| 20260507044035 | 16 | 331 | 3.2 | 4.8 | 0.00 | 0.00 | 0.00 | 87 | 1018.5 |
| 20260507043804 | 16 | 235 | 1.6 | 6.4 | 0.00 | 0.00 | 0.00 | 86 | 1018.5 |
| 20260507043041 | 16 | 311 | 1.6 | 9.7 | 0.00 | 0.00 | 0.00 | 86 | 1018.6 |
| 20260507042533 | 16 | 290 | 1.6 | 9.7 | 0.00 | 0.00 | 0.00 | 86 | 1018.4 |
| 20260507042022 | 16 | 263 | 3.2 | 6.4 | 0.00 | 0.00 | 0.00 | 87 | 1018.5 |
| 20260507041522 | 16 | 257 | 1.6 | 6.4 | 0.00 | 0.00 | 0.00 | 87 | 1018.5 |
| 20260507041021 | 16 | 212 | 1.6 | 6.4 | 0.00 | 0.00 | 0.00 | 87 | 1018.6 |
| 20260507040509 | 16 | 257 | 0.0 | 9.7 | 0.00 | 0.00 | 0.00 | 86 | 1018.3 |
| 20260507040009 | 16 | 301 | 3.2 | 4.8 | 0.00 | 0.00 | 0.00 | 86 | 1018.5 |
| 20260507035510 | 17 | 259 | 3.2 | 6.4 | 0.00 | 0.00 | 0.00 | 86 | 1018.3 |
| 20260507034946 | 17 | 213 | 0.0 | 9.7 | 0.00 | 0.00 | 0.00 | 85 | 1018.3 |
| 20260507034717 | 17 | 226 | 3.2 | 9.7 | 0.00 | 0.00 | 0.00 | 84 | 1018.3 |
| 20260507033947 | 17 | 271 | 1.6 | 11.3 | 0.00 | 0.00 | 0.00 | 82 | 1018.2 |
| 20260507033447 | 17 | 205 | 0.0 | 11.3 | 0.00 | 0.00 | 0.00 | 81 | 1018.2 |
| 20260507032946 | 17 | 288 | 6.4 | 11.3 | 0.00 | 0.00 | 0.00 | 80 | 1018.1 |
| 20260507032446 | 17 | 278 | 3.2 | 12.9 | 0.00 | 0.00 | 0.00 | 79 | 1018.1 |
| 20260507031946 | 17 | 306 | 3.2 | 12.9 | 0.00 | 0.00 | 0.00 | 79 | 1018.1 |
| 20260507031447 | 17 | 302 | 6.4 | 9.7 | 0.00 | 0.00 | 0.00 | 78 | 1017.9 |
| 20260507030946 | 17 | 204 | 0.0 | 9.7 | 0.00 | 0.00 | 0.00 | 78 | 1017.9 |
| 20260507030446 | 17 | 202 | 0.0 | 6.4 | 0.00 | 0.00 | 0.00 | 79 | 1017.8 |
| 20260507025934 | 17 | 294 | 4.8 | 6.4 | 0.00 | 0.00 | 0.00 | 80 | 1017.8 |
| 20260507025434 | 17 | 267 | 3.2 | 6.4 | 0.00 | 0.00 | 0.00 | 79 | 1017.8 |
| 20260507024934 | 18 | 229 | 1.6 | 14.5 | 0.00 | 0.00 | 0.00 | 78 | 1017.6 |
| 20260507024706 | 18 | 306 | 1.6 | 14.5 | 0.00 | 0.00 | 0.00 | 78 | 1017.8 |
| 20260507023934 | 18 | 240 | 3.2 | 11.3 | 0.00 | 0.00 | 0.00 | 77 | 1017.7 |
| 20260507023705 | 18 | 329 | 4.8 | 11.3 | 0.00 | 0.00 | 0.00 | 76 | 1017.5 |
| 20260507022934 | 18 | 280 | 3.2 | 11.3 | 0.00 | 0.00 | 0.00 | 75 | 1017.3 |
| 20260507022422 | 18 | 317 | 3.2 | 12.9 | 0.00 | 0.00 | 0.00 | 74 | 1017.1 |
| 20260507021922 | 18 | 284 | 3.2 | 12.9 | 0.00 | 0.00 | 0.00 | 74 | 1017.6 |
| 20260507021423 | 19 | 257 | 3.2 | 9.7 | 0.00 | 0.00 | 0.00 | 73 | 1017.5 |
| 20260507020911 | 19 | 329 | 3.2 | 12.9 | 0.00 | 0.00 | 0.00 | 73 | 1017.3 |
| 20260507020411 | 19 | 314 | 3.2 | 12.9 | 0.00 | 0.00 | 0.00 | 72 | 1017.3 |
| 20260507015910 | 20 | 284 | 1.6 | 11.3 | 0.00 | 0.00 | 0.00 | 70 | 1017.3 |
| 20260507015358 | 20 | 308 | 1.6 | 11.3 | 0.00 | 0.00 | 0.00 | 71 | 1017.1 |
| 20260507014858 | 20 | 219 | 6.4 | 11.3 | 0.00 | 0.00 | 0.00 | 69 | 1017.3 |
| 20260507014358 | 21 | 299 | 1.6 | 9.7 | 0.00 | 0.00 | 0.00 | 70 | 1017.3 |
| 20260507013847 | 21 | 22 | 1.6 | 12.9 | 0.00 | 0.00 | 0.00 | 69 | 1017.2 |
| 20260507013618 | 21 | 306 | 6.4 | 12.9 | 0.00 | 0.00 | 0.00 | 68 | 1017.0 |
| 20260507012846 | 20 | 295 | 3.2 | 12.9 | 0.00 | 0.00 | 0.00 | 70 | 1016.9 |
| 20260507012346 | 21 | 238 | 3.2 | 12.9 | 0.00 | 0.00 | 0.00 | 70 | 1017.0 |
| 20260507011846 | 21 | 200 | 3.2 | 14.5 | 0.00 | 0.00 | 0.00 | 69 | 1017.0 |
| 20260507011346 | 21 | 197 | 3.2 | 14.5 | 0.00 | 0.00 | 0.00 | 68 | 1016.8 |
| 20260507011118 | 21 | 261 | 4.8 | 14.5 | 0.00 | 0.00 | 0.00 | 69 | 1017.0 |
| 20260507010335 | 21 | 322 | 1.6 | 9.7 | 0.00 | 0.00 | 0.00 | 68 | 1016.9 |
| 20260507005835 | 21 | 213 | 1.6 | 12.9 | 0.00 | 0.00 | 0.00 | 67 | 1016.8 |
| 20260507005334 | 21 | 210 | 4.8 | 12.9 | 0.00 | 0.00 | 0.00 | 67 | 1016.7 |
| 20260507004834 | 22 | 259 | 0.0 | 9.7 | 0.00 | 0.00 | 0.00 | 67 | 1016.6 |
| 20260507004335 | 22 | 226 | 0.0 | 17.7 | 0.00 | 0.00 | 0.00 | 66 | 1016.8 |
| 20260507004105 | 22 | 53 | 4.8 | 17.7 | 0.00 | 0.00 | 0.00 | 67 | 1016.6 |
| 20260507003335 | 21 | 347 | 6.4 | 17.7 | 0.00 | 0.00 | 0.00 | 66 | 1017.0 |
| 20260507002822 | 22 | 288 | 3.2 | 20.9 | 0.00 | 0.00 | 0.00 | 64 | 1017.0 |
| 20260507002323 | 22 | 290 | 3.2 | 20.9 | 0.00 | 0.00 | 0.00 | 64 | 1016.7 |
| 20260507001823 | 22 | 280 | 6.4 | 14.5 | 0.00 | 0.00 | 0.00 | 62 | 1016.5 |
| 20260507001310 | 22 | 328 | 9.7 | 12.9 | 0.00 | 0.00 | 0.00 | 61 | 1016.9 |
| 20260507000810 | 23 | 206 | 1.6 | 16.1 | 0.00 | 0.00 | 0.00 | 62 | 1016.6 |
| 20260507000310 | 22 | 311 | 8.0 | 16.1 | 0.00 | 0.00 | 0.00 | 62 | 1016.7 |
| 20260506235759 | 23 | 217 | 0.0 | 14.5 | 0.00 | 0.00 | 0.00 | 61 | 1016.6 |
| 20260506235259 | 23 | 301 | 1.6 | 17.7 | 0.00 | 0.00 | 0.00 | 61 | 1016.7 |
| 20260506235029 | 23 | 182 | 9.7 | 17.7 | 0.00 | 0.00 | 0.00 | 62 | 1016.8 |
| 20260506234246 | 23 | 315 | 6.4 | 20.9 | 0.00 | 0.00 | 0.00 | 61 | 1016.6 |
| 20260506233746 | 23 | 270 | 6.4 | 20.9 | 0.00 | 0.00 | 0.00 | 61 | 1016.6 |
| 20260506233246 | 23 | 230 | 4.8 | 14.5 | 0.00 | 0.00 | 0.00 | 61 | 1016.5 |
| 20260506232747 | 23 | 211 | 6.4 | 14.5 | 0.00 | 0.00 | 0.00 | 62 | 1016.8 |
| 20260506232247 | 23 | 254 | 4.8 | 14.5 | 0.00 | 0.00 | 0.00 | 61 | 1016.6 |
| 20260506231746 | 23 | 246 | 3.2 | 14.5 | 0.00 | 0.00 | 0.00 | 60 | 1016.7 |
| 20260506231246 | 24 | 288 | 8.0 | 12.9 | 0.00 | 0.00 | 0.00 | 60 | 1016.6 |
| 20260506230746 | 24 | 287 | 3.2 | 12.9 | 0.00 | 0.00 | 0.00 | 60 | 1016.8 |
| 20260506230246 | 24 | 251 | 3.2 | 22.5 | 0.00 | 0.00 | 0.00 | 58 | 1016.9 |
| 20260506230017 | 23 | 215 | 4.8 | 22.5 | 0.00 | 0.00 | 0.00 | 61 | 1016.7 |
| 20260506225247 | 23 | 226 | 11.3 | 20.9 | 0.00 | 0.00 | 0.00 | 61 | 1016.7 |
| 20260506224747 | 23 | 217 | 9.7 | 16.1 | 0.00 | 0.00 | 0.00 | 60 | 1016.9 |
| 20260506224246 | 23 | 225 | 4.8 | 14.5 | 0.00 | 0.00 | 0.00 | 58 | 1017.0 |
| 20260506223746 | 24 | 247 | 9.7 | 14.5 | 0.00 | 0.00 | 0.00 | 57 | 1017.1 |
| 20260506223246 | 24 | 247 | 3.2 | 14.5 | 0.00 | 0.00 | 0.00 | 56 | 1017.2 |
| 20260506222746 | 24 | 216 | 6.4 | 16.1 | 0.00 | 0.00 | 0.00 | 56 | 1017.2 |
| 20260506222250 | 22 | 241 | 8.0 | 16.1 | 0.00 | 0.00 | 0.00 | 63 | 1017.2 |
| 20260506222246 | 23 | 241 | 0.0 | 16.1 | 0.00 | 0.00 | 0.00 | 58 | 1017.3 |
| 20260506221246 | 22 | 268 | 9.7 | 20.9 | 0.00 | 0.00 | 0.00 | 64 | 1017.3 |
| 20260506220747 | 22 | 187 | 6.4 | 20.9 | 0.00 | 0.00 | 0.00 | 63 | 1017.3 |
| 20260506220247 | 22 | 251 | 8.0 | 20.9 | 0.00 | 0.00 | 0.00 | 61 | 1017.6 |
| 20260506215746 | 22 | 236 | 14.5 | 20.9 | 0.00 | 0.00 | 0.00 | 61 | 1017.6 |
| 20260506215247 | 22 | 215 | 12.9 | 20.9 | 0.00 | 0.00 | 0.00 | 61 | 1017.6 |
| 20260506215018 | 23 | 206 | 11.3 | 20.9 | 0.00 | 0.00 | 0.00 | 63 | 1017.8 |
| 20260506214246 | 23 | 206 | 0.0 | 14.5 | 0.00 | 0.00 | 0.00 | 62 | 1017.8 |
| 20260506213746 | 23 | 230 | 6.4 | 11.3 | 0.00 | 0.00 | 0.00 | 59 | 1018.0 |
| 20260506213246 | 24 | 277 | 3.2 | 14.5 | 0.00 | 0.00 | 0.00 | 58 | 1018.1 |
| 20260506212746 | 22 | 223 | 1.6 | 14.5 | 0.00 | 0.00 | 0.00 | 63 | 1018.0 |
| 20260506212246 | 22 | 212 | 3.2 | 14.5 | 0.00 | 0.00 | 0.00 | 63 | 1018.1 |
| 20260506211747 | 22 | 225 | 3.2 | 14.5 | 0.00 | 0.00 | 0.00 | 63 | 1018.1 |
| 20260506211247 | 22 | 205 | 0.0 | 12.9 | 0.00 | 0.00 | 0.00 | 65 | 1018.2 |
| 20260506210747 | 22 | 217 | 3.2 | 16.1 | 0.00 | 0.00 | 0.00 | 64 | 1018.3 |
| 20260506210247 | 21 | 243 | 6.4 | 16.1 | 0.00 | 0.00 | 0.00 | 65 | 1018.3 |
| 20260506205746 | 22 | 207 | 6.4 | 17.7 | 0.00 | 0.00 | 0.00 | 64 | 1018.4 |
| 20260506205246 | 21 | 235 | 4.8 | 17.7 | 0.00 | 0.00 | 0.00 | 65 | 1018.4 |
| 20260506204747 | 21 | 246 | 11.3 | 17.7 | 0.00 | 0.00 | 0.00 | 66 | 1018.6 |
| 20260506204246 | 21 | 234 | 9.7 | 17.7 | 0.00 | 0.00 | 0.00 | 66 | 1018.4 |
| 20260506203746 | 21 | 258 | 6.4 | 17.7 | 0.00 | 0.00 | 0.00 | 66 | 1018.6 |
| 20260506203246 | 21 | 187 | 4.8 | 17.7 | 0.00 | 0.00 | 0.00 | 66 | 1018.6 |
| 20260506202746 | 21 | 240 | 12.9 | 25.7 | 0.00 | 0.00 | 0.00 | 67 | 1018.7 |
| 20260506202246 | 21 | 233 | 6.4 | 25.7 | 0.00 | 0.00 | 0.00 | 67 | 1018.6 |
| 20260506201746 | 21 | 265 | 9.7 | 22.5 | 0.00 | 0.00 | 0.00 | 67 | 1018.8 |
| 20260506201246 | 22 | 268 | 9.7 | 16.1 | 0.00 | 0.00 | 0.00 | 66 | 1018.9 |
| 20260506200748 | 21 | 268 | 4.8 | 20.9 | 0.00 | 0.00 | 0.00 | 67 | 1019.1 |
| 20260506200247 | 21 | 211 | 6.4 | 20.9 | 0.00 | 0.00 | 0.00 | 67 | 1019.0 |
| 20260506195746 | 21 | 214 | 0.0 | 17.7 | 0.00 | 0.00 | 0.00 | 67 | 1018.9 |
| 20260506195247 | 20 | 198 | 11.3 | 14.5 | 0.00 | 0.00 | 0.00 | 70 | 1019.1 |
| 20260506194746 | 20 | 191 | 6.4 | 17.7 | 0.00 | 0.00 | 0.00 | 70 | 1019.0 |
| 20260506194247 | 20 | 175 | 6.4 | 17.7 | 0.00 | 0.00 | 0.00 | 70 | 1019.2 |
| 20260506193747 | 21 | 219 | 8.0 | 17.7 | 0.00 | 0.00 | 0.00 | 69 | 1019.0 |
| 20260506193246 | 21 | 239 | 3.2 | 22.5 | 0.00 | 0.00 | 0.00 | 70 | 1019.3 |
| 20260506192746 | 21 | 231 | 8.0 | 22.5 | 0.00 | 0.00 | 0.00 | 70 | 1019.3 |
| 20260506192246 | 21 | 218 | 6.4 | 17.7 | 0.00 | 0.00 | 0.00 | 68 | 1019.1 |
| 20260506191747 | 21 | 217 | 6.4 | 14.5 | 0.00 | 0.00 | 0.00 | 70 | 1019.3 |
| 20260506191247 | 21 | 217 | 6.4 | 22.5 | 0.00 | 0.00 | 0.00 | 71 | 1019.3 |
| 20260506190747 | 20 | 215 | 6.4 | 22.5 | 0.00 | 0.00 | 0.00 | 73 | 1019.4 |
| 20260506190246 | 20 | 190 | 9.7 | 16.1 | 0.00 | 0.00 | 0.00 | 72 | 1019.7 |
| 20260506185747 | 20 | 206 | 9.7 | 16.1 | 0.00 | 0.00 | 0.00 | 72 | 1019.5 |
| 20260506185246 | 20 | 242 | 8.0 | 14.5 | 0.00 | 0.00 | 0.00 | 72 | 1019.3 |
| 20260506184746 | 20 | 184 | 4.8 | 14.5 | 0.00 | 0.00 | 0.00 | 72 | 1019.5 |
| 20260506184246 | 20 | 214 | 6.4 | 14.5 | 0.00 | 0.00 | 0.00 | 72 | 1019.9 |
| 20260506183745 | 20 | 214 | 6.4 | 14.5 | 0.00 | 0.00 | 0.00 | 71 | 1019.9 |
| 20260506183245 | 20 | 221 | 3.2 | 14.5 | 0.00 | 0.00 | 0.00 | 72 | 1019.7 |
| 20260506182745 | 20 | 201 | 0.0 | 0.0 | 0.00 | 0.00 | 0.00 | 74 | 1019.8 |
| 20260506182246 | 20 | 203 | 0.0 | 0.0 | 0.00 | 0.00 | 0.00 | 73 | 1019.9 |
| 20260506182017 | 20 | 174 | 0.0 | 0.0 | 0.00 | 0.00 | 0.00 | 74 | 1019.7 |
| 20260506181245 | 20 | 180 | 0.0 | 0.0 | 0.00 | 0.00 | 0.00 | 74 | 1019.6 |
| 20260506180750 | 20 | 211 | 0.0 | 0.0 | 0.00 | 0.00 | 0.00 | 74 | 1019.5 |
| 20260506180745 | 20 | 197 | 0.0 | 0.0 | 0.00 | 0.00 | 0.00 | 74 | 1019.8 |
| 20260506175746 | 19 | 192 | 0.0 | 0.0 | 0.00 | 0.00 | 0.00 | 75 | 1019.9 |
| 20260506175246 | 20 | 208 | 0.0 | 0.0 | 0.00 | 0.00 | 0.00 | 74 | 1019.9 |
| 20260506174745 | 20 | 198 | 0.0 | 0.0 | 0.00 | 0.00 | 0.00 | 74 | 1020.0 |
| 20260506174246 | 19 | 207 | 0.0 | 0.0 | 0.00 | 0.00 | 0.00 | 75 | 1020.0 |
| 20260506173746 | 21 | 182 | 0.0 | 0.0 | 0.00 | 0.00 | 0.00 | 70 | 1019.7 |
| 20260506173245 | 21 | 171 | 0.0 | 0.0 | 0.00 | 0.00 | 0.00 | 67 | 1019.8 |
| 20260506172745 | 20 | 125 | 0.0 | 0.0 | 0.00 | 0.00 | 0.00 | 69 | 1019.8 |
| 20260506172245 | 20 | 146 | 0.0 | 0.0 | 0.00 | 0.00 | 0.00 | 71 | 1019.7 |
| 20260506171746 | 19 | 160 | 0.0 | 0.0 | 0.00 | 0.00 | 0.00 | 72 | 1019.7 |
| 20260506171245 | 19 | 147 | 0.0 | 0.0 | 0.00 | 0.00 | 0.00 | 72 | 1019.9 |
| 20260506170733 | 19 | 183 | 0.0 | 0.0 | 0.00 | 0.00 | 0.00 | 74 | 1019.8 |
| 20260506170234 | 19 | 168 | 0.0 | 0.0 | 0.00 | 0.00 | 0.00 | 73 | 1019.6 |
| 20260506165734 | 20 | 164 | 0.0 | 0.0 | 0.00 | 0.00 | 0.00 | 70 | 1019.6 |
| 20260506165234 | 20 | 171 | 0.0 | 0.0 | 0.00 | 0.00 | 0.00 | 68 | 1019.9 |
| 20260506164733 | 19 | 169 | 0.0 | 0.0 | 0.00 | 0.00 | 0.00 | 73 | 1019.7 |
| 20260506164233 | 20 | 171 | 0.0 | 0.0 | 0.00 | 0.00 | 0.00 | 70 | 1019.9 |
| 20260506164003 | 19 | 158 | 0.0 | 0.0 | 0.00 | 0.00 | 0.00 | 72 | 1019.7 |
| 20260506163235 | 18 | 158 | 0.0 | 0.0 | 0.00 | 0.00 | 0.00 | 71 | 1019.9 |
| 20260506162734 | 19 | 176 | 0.0 | 0.0 | 0.00 | 0.00 | 0.00 | 73 | 1019.7 |
| 20260506162234 | 19 | 165 | 0.0 | 0.0 | 0.00 | 0.00 | 0.00 | 73 | 1019.9 |
| 20260506161733 | 18 | 155 | 0.0 | 0.0 | 0.00 | 0.00 | 0.00 | 77 | 1019.8 |
| 20260506161233 | 18 | 158 | 0.0 | 0.0 | 0.00 | 0.00 | 0.00 | 77 | 1019.7 |
| 20260506160733 | 18 | 163 | 0.0 | 0.0 | 0.00 | 0.00 | 0.00 | 77 | 1020.0 |
| 20260506160234 | 17 | 163 | 0.0 | 0.0 | 0.00 | 0.00 | 0.00 | 78 | 1020.0 |
| 20260506155733 | 18 | 153 | 0.0 | 0.0 | 0.00 | 0.00 | 0.00 | 79 | 1019.8 |
| 20260506155451 | 17 | 149 | 0.0 | 0.0 | 0.00 | 0.00 | 0.00 | 80 | 1020.1 |
| 20260506154722 | 17 | 150 | 0.0 | 0.0 | 0.00 | 0.00 | 0.00 | 82 | 1019.9 |
| 20260506154222 | 17 | 139 | 0.0 | 0.0 | 0.00 | 0.00 | 0.00 | 81 | 1019.8 |
| 20260506153709 | 17 | 153 | 0.0 | 0.0 | 0.00 | 0.00 | 0.00 | 81 | 1020.0 |
| 20260506153209 | 17 | 159 | 0.0 | 0.0 | 0.00 | 0.00 | 0.00 | 81 | 1020.1 |
| 20260506152710 | 17 | 149 | 0.0 | 0.0 | 0.00 | 0.00 | 0.00 | 82 | 1020.2 |
| 20260506152157 | 17 | 149 | 0.0 | 0.0 | 0.00 | 0.00 | 0.00 | 81 | 1020.0 |
| 20260506151657 | 17 | 151 | 0.0 | 0.0 | 0.00 | 0.00 | 0.00 | 83 | 1020.2 |
| 20260506151158 | 16 | 151 | 0.0 | 0.0 | 0.00 | 0.00 | 0.00 | 83 | 1020.1 |
| 20260506150645 | 16 | 131 | 0.0 | 0.0 | 0.00 | 0.00 | 0.00 | 84 | 1020.1 |
| 20260506150146 | 16 | 145 | 0.0 | 0.0 | 0.00 | 0.00 | 0.00 | 84 | 1020.1 |
| 20260506145646 | 16 | 147 | 0.0 | 0.0 | 0.00 | 0.00 | 0.00 | 84 | 1020.1 |
| 20260506145146 | 16 | 136 | 0.0 | 0.0 | 0.00 | 0.00 | 0.00 | 85 | 1020.1 |
| 20260506144645 | 15 | 149 | 0.0 | 0.0 | 0.00 | 0.00 | 0.00 | 85 | 1020.0 |
| 20260506144145 | 15 | 143 | 0.0 | 0.0 | 0.00 | 0.00 | 0.00 | 85 | 1019.9 |
| 20260506143645 | 15 | 147 | 0.0 | 0.0 | 0.00 | 0.00 | 0.00 | 86 | 1019.9 |
| 20260506143145 | 15 | 144 | 0.0 | 0.0 | 0.00 | 0.00 | 0.00 | 86 | 1019.9 |
| 20260506142645 | 15 | 136 | 0.0 | 0.0 | 0.00 | 0.00 | 0.00 | 86 | 1019.9 |
| 20260506142146 | 15 | 129 | 0.0 | 0.0 | 0.00 | 0.00 | 0.00 | 87 | 1019.9 |
| 20260506141645 | 15 | 143 | 0.0 | 0.0 | 0.00 | 0.00 | 0.00 | 88 | 1019.9 |
| 20260506141145 | 15 | 144 | 0.0 | 0.0 | 0.00 | 0.00 | 0.00 | 88 | 1019.6 |
| 20260506140646 | 14 | 140 | 0.0 | 0.0 | 0.00 | 0.00 | 0.00 | 89 | 1019.7 |
| 20260506140147 | 14 | 144 | 0.0 | 0.0 | 0.00 | 0.00 | 0.00 | 90 | 1019.6 |
| 20260506135917 | 13 | 146 | 0.0 | 0.0 | 0.00 | 0.00 | 0.00 | 92 | 1019.9 |
| 20260506135749 | 13 | 147 | 0.0 | 0.0 | 0.00 | 0.00 | 0.00 | 95 | 1019.6 |
| 20260506134645 | 13 | 151 | 0.0 | 0.0 | 0.00 | 0.00 | 0.00 | 97 | 1019.7 |
| 20260506134145 | 13 | 150 | 0.0 | 0.0 | 0.00 | 0.00 | 0.00 | 99 | 1019.6 |
| 20260506133645 | 12 | 150 | 0.0 | 0.0 | 0.00 | 0.00 | 0.00 | 99 | 1019.7 |
| 20260506133416 | 12 | 151 | 0.0 | 0.0 | 0.00 | 0.00 | 0.00 | 99 | 1019.7 |
| 20260506132646 | 12 | 151 | 0.0 | 0.0 | 0.00 | 0.00 | 0.00 | 99 | 1019.4 |
| 20260506132145 | 12 | 151 | 0.0 | 0.0 | 0.00 | 0.00 | 0.00 | 99 | 1019.3 |
| 20260506131645 | 11 | 151 | 0.0 | 0.0 | 0.00 | 0.00 | 0.00 | 99 | 1019.4 |
| 20260506131145 | 11 | 151 | 0.0 | 0.0 | 0.00 | 0.00 | 0.00 | 99 | 1019.5 |
| 20260506130646 | 11 | 151 | 0.0 | 0.0 | 0.00 | 0.00 | 0.00 | 99 | 1019.2 |
| 20260506130146 | 11 | 151 | 0.0 | 0.0 | 0.00 | 0.00 | 0.00 | 99 | 1019.3 |
| 20260506125646 | 11 | 151 | 0.0 | 0.0 | 0.00 | 0.00 | 0.00 | 99 | 1019.2 |
| 20260506125133 | 11 | 151 | 0.0 | 0.0 | 0.00 | 0.00 | 0.00 | 99 | 1019.2 |
| 20260506124634 | 11 | 151 | 0.0 | 0.0 | 0.00 | 0.00 | 0.00 | 99 | 1019.2 |
| 20260506124405 | 11 | 151 | 0.0 | 0.0 | 0.00 | 0.00 | 0.00 | 99 | 1019.0 |
| 20260506123603 | 12 | 151 | 0.0 | 0.0 | 0.00 | 0.00 | 0.00 | 99 | 1019.0 |
| 20260506123045 | 11 | 152 | 0.0 | 0.0 | 0.00 | 0.00 | 0.00 | 99 | 1018.8 |
| 20260506122815 | 12 | 152 | 0.0 | 0.0 | 0.00 | 0.00 | 0.00 | 99 | 1019.0 |
| 20260506122317 | 12 | 152 | 0.0 | 0.0 | 0.00 | 0.00 | 0.00 | 99 | 1018.8 |
| 20260506121537 | 12 | 151 | 0.0 | 0.0 | 0.00 | 0.00 | 0.00 | 99 | 1019.0 |
| 20260506121533 | 12 | 151 | 0.0 | 0.0 | 0.00 | 0.00 | 0.00 | 99 | 1018.9 |
| 20260506120535 | 12 | 151 | 0.0 | 0.0 | 0.00 | 0.00 | 0.00 | 99 | 1019.1 |
| 20260506120305 | 12 | 151 | 0.0 | 0.0 | 0.00 | 0.00 | 0.00 | 99 | 1019.1 |
| 20260506115516 | 12 | 151 | 0.0 | 0.0 | 0.00 | 0.00 | 0.00 | 99 | 1018.8 |
| 20260506114945 | 12 | 151 | 0.0 | 0.0 | 0.00 | 0.00 | 0.00 | 99 | 1018.9 |
| 20260506114715 | 12 | 151 | 0.0 | 0.0 | 0.00 | 0.00 | 0.00 | 99 | 1018.8 |
| 20260506113946 | 12 | 151 | 0.0 | 0.0 | 0.00 | 0.00 | 0.00 | 99 | 1018.7 |
| 20260506113446 | 12 | 151 | 0.0 | 0.0 | 0.00 | 0.00 | 0.00 | 99 | 1018.6 |
| 20260506112946 | 12 | 151 | 0.0 | 0.0 | 0.00 | 0.00 | 0.00 | 99 | 1018.8 |
| 20260506112445 | 12 | 152 | 0.0 | 0.0 | 0.00 | 0.00 | 0.00 | 99 | 1018.7 |
| 20260506111945 | 12 | 151 | 0.0 | 0.0 | 0.00 | 0.00 | 0.00 | 99 | 1018.6 |
| 20260506111433 | 12 | 152 | 0.0 | 0.0 | 0.00 | 0.00 | 0.00 | 99 | 1018.6 |
| 20260506111203 | 12 | 152 | 0.0 | 0.0 | 0.00 | 0.00 | 0.00 | 99 | 1018.5 |
| 20260506110434 | 12 | 152 | 0.0 | 0.0 | 0.00 | 0.00 | 0.00 | 99 | 1018.5 |
| 20260506105938 | 12 | 152 | 0.0 | 0.0 | 0.00 | 0.00 | 0.00 | 99 | 1018.6 |
| 20260506105934 | 12 | 152 | 0.0 | 0.0 | 0.00 | 0.00 | 0.00 | 99 | 1018.8 |
| 20260506104933 | 12 | 158 | 0.0 | 0.0 | 0.00 | 0.00 | 0.00 | 99 | 1018.7 |
| 20260506104704 | 12 | 169 | 0.0 | 0.0 | 0.00 | 0.00 | 0.00 | 99 | 1018.8 |
| 20260506103934 | 12 | 169 | 0.0 | 0.0 | 0.00 | 0.00 | 0.00 | 99 | 1018.6 |
| 20260506103427 | 12 | 169 | 0.0 | 0.0 | 0.00 | 0.00 | 0.00 | 99 | 1018.7 |
| 20260506102909 | 13 | 169 | 0.0 | 0.0 | 0.00 | 0.00 | 0.00 | 99 | 1018.6 |
| 20260506102409 | 13 | 169 | 0.0 | 0.0 | 0.00 | 0.00 | 0.00 | 99 | 1018.4 |
| 20260506101909 | 13 | 169 | 0.0 | 0.0 | 0.00 | 0.00 | 0.00 | 99 | 1018.5 |
| 20260506101345 | 13 | 169 | 0.0 | 0.0 | 0.00 | 0.00 | 0.00 | 99 | 1018.7 |
| 20260506100845 | 13 | 169 | 0.0 | 0.0 | 0.00 | 0.00 | 0.00 | 98 | 1018.7 |
| 20260506100345 | 13 | 169 | 0.0 | 0.0 | 0.00 | 0.00 | 0.00 | 98 | 1018.7 |
| 20260506095849 | 13 | 169 | 0.0 | 0.0 | 0.00 | 0.00 | 0.00 | 98 | 1018.6 |
| 20260506095845 | 13 | 169 | 0.0 | 0.0 | 0.00 | 0.00 | 0.00 | 98 | 1018.5 |
| 20260506094845 | 13 | 169 | 0.0 | 0.0 | 0.00 | 0.00 | 0.00 | 98 | 1018.5 |
| 20260506094345 | 13 | 169 | 0.0 | 0.0 | 0.00 | 0.00 | 0.00 | 98 | 1018.6 |
| 20260506093845 | 13 | 171 | 0.0 | 0.0 | 0.00 | 0.00 | 0.00 | 98 | 1018.8 |
| 20260506093345 | 13 | 171 | 0.0 | 0.0 | 0.00 | 0.00 | 0.00 | 98 | 1018.9 |
| 20260506092845 | 13 | 171 | 0.0 | 0.0 | 0.00 | 0.00 | 0.00 | 98 | 1018.7 |
| 20260506092345 | 13 | 171 | 0.0 | 0.0 | 0.00 | 0.00 | 0.00 | 98 | 1018.8 |
| 20260506091845 | 13 | 171 | 0.0 | 0.0 | 0.00 | 0.00 | 0.00 | 98 | 1018.6 |
| 20260506091345 | 13 | 171 | 0.0 | 0.0 | 0.00 | 0.00 | 0.00 | 98 | 1018.8 |
| 20260506090845 | 13 | 171 | 0.0 | 0.0 | 0.00 | 0.00 | 0.00 | 98 | 1018.7 |
| 20260506090345 | 13 | 171 | 0.0 | 0.0 | 0.00 | 0.00 | 0.00 | 98 | 1018.7 |
| 20260506085846 | 13 | 171 | 0.0 | 0.0 | 0.00 | 0.00 | 0.00 | 97 | 1018.7 |
| 20260506085345 | 13 | 171 | 0.0 | 0.0 | 0.00 | 0.00 | 0.00 | 97 | 1018.7 |
| 20260506084845 | 13 | 171 | 0.0 | 0.0 | 0.00 | 0.00 | 0.00 | 97 | 1018.9 |
| 20260506084346 | 13 | 171 | 0.0 | 0.0 | 0.00 | 0.00 | 0.00 | 97 | 1018.9 |
| 20260506084117 | 13 | 171 | 0.0 | 0.0 | 0.00 | 0.00 | 0.00 | 97 | 1019.0 |
| 20260506083345 | 13 | 171 | 0.0 | 0.0 | 0.00 | 0.00 | 0.00 | 97 | 1018.8 |
| 20260506082845 | 13 | 171 | 0.0 | 0.0 | 0.00 | 0.00 | 0.00 | 97 | 1018.9 |
| 20260506082345 | 13 | 171 | 0.0 | 0.0 | 0.00 | 0.00 | 0.00 | 96 | 1019.0 |
| 20260506081845 | 13 | 171 | 0.0 | 0.0 | 0.00 | 0.00 | 0.00 | 96 | 1018.9 |
| 20260506081345 | 13 | 171 | 0.0 | 0.0 | 0.00 | 0.00 | 0.00 | 96 | 1019.0 |
| 20260506080845 | 13 | 171 | 0.0 | 0.0 | 0.00 | 0.00 | 0.00 | 96 | 1019.1 |
| 20260506080345 | 13 | 171 | 0.0 | 0.0 | 0.00 | 0.00 | 0.00 | 96 | 1019.0 |
| 20260506073346 | 13 | 171 | 0.0 | 0.0 | 0.00 | 0.00 | 0.00 | 95 | 1019.1 |
| 20260506073117 | 13 | 171 | 0.0 | 0.0 | 0.00 | 0.00 | 0.00 | 95 | 1019.1 |
| 20260506072346 | 13 | 171 | 0.0 | 0.0 | 0.00 | 0.00 | 0.00 | 94 | 1019.1 |
| 20260506071845 | 13 | 172 | 0.0 | 0.0 | 0.00 | 0.00 | 0.00 | 94 | 1019.0 |
| 20260506071345 | 13 | 175 | 0.0 | 0.0 | 0.00 | 0.00 | 0.00 | 94 | 1019.1 |
| 20260506070845 | 13 | 179 | 0.0 | 0.0 | 0.00 | 0.00 | 0.00 | 93 | 1019.1 |
| 20260506070345 | 14 | 219 | 0.0 | 0.0 | 0.00 | 0.00 | 0.00 | 93 | 1018.7 |
| 20260506070108 | 14 | 222 | 0.0 | 0.0 | 0.00 | 0.00 | 0.00 | 93 | 1019.0 |
| 20260506062336 | 14 | 221 | 0.0 | 0.0 | 0.00 | 0.00 | 0.00 | 91 | 1018.7 |
| 20260506061836 | 14 | 221 | 0.0 | 0.0 | 0.00 | 0.00 | 0.00 | 91 | 1018.6 |
| 20260506061336 | 14 | 221 | 0.0 | 0.0 | 0.00 | 0.00 | 0.00 | 91 | 1018.5 |
| 20260506060836 | 14 | 221 | 0.0 | 0.0 | 0.00 | 0.00 | 0.00 | 91 | 1018.5 |
| 20260506060336 | 14 | 221 | 0.0 | 0.0 | 0.00 | 0.00 | 0.00 | 91 | 1018.5 |
| 20260506050836 | 15 | 222 | 0.0 | 0.0 | 0.00 | 0.00 | 0.00 | 85 | 1018.1 |
| 20260506050336 | 15 | 222 | 0.0 | 0.0 | 0.00 | 0.00 | 0.00 | 84 | 1018.0 |